Tracking 28052 objects as of 24-Sep-2023
HD Live streaming from Space Station
objects crossing your sky now

THORAD DELTA 1 DEB

Track THORAD DELTA 1 DEB now!
10-day predictions


NORAD ID: 8172
Int'l Code: 1974-089AN
Perigee: 1,409.8 km
Apogee: 1,492.7 km
Inclination: 102.0 °
Period: 114.8 minutes
Semi major axis: 7822 km
RCS: 0.2202 m2 (medium)
Launch date: November 15, 1974
Source: United States (US)
Launch site: AIR FORCE WESTERN TEST RANGE (AFWTR)

Note: This is SATELLITE DEBRIS
Your satellite tracking list
Your tracking list is empty




NASA's NSSDC Master Catalog

Two Line Element Set (TLE):
1 08172U 74089AN  23267.57295958 -.00000017  00000-0  18198-3 0  9995
2 08172 101.9673 257.6434 0052946 197.9120 274.0680 12.54892446237805
Source of the keplerian elements: AFSPC